CET,Max TemperatureF,Mean TemperatureF,Min TemperatureF,Max Dew PointF,MeanDew PointF,Min DewpointF,Max Humidity, Mean Humidity, Min Humidity, Max Sea Level PressureIn, Mean Sea Level PressureIn, Min Sea Level PressureIn, Max VisibilityMiles, Mean VisibilityMiles, Min VisibilityMiles, Max Wind SpeedMPH, Mean Wind SpeedMPH, Max Gust SpeedMPH,PrecipitationIn, CloudCover, Events, WindDirDegrees
2012-11-1,52,46,39,46,41,37,93,79,58,29.21,29.06,28.97,19,8,5,16,11,28,0.08,4,Rain,188
2012-11-2,51,46,41,43,39,37,93,80,49,29.50,29.37,29.21,9,6,4,20,13,29,0.04,5,Rain,214
2012-11-3,49,45,41,45,40,39,93,83,58,29.61,29.50,29.44,19,8,4,15,9,,0.16,4,Rain,208
2012-11-4,50,42,33,45,39,33,100,84,58,29.63,29.46,29.33,16,5,2,16,8,28,0.16,4,Fog-Rain,184
2012-11-5,47,44,41,45,41,39,93,87,70,29.89,29.62,29.44,16,6,2,13,9,,0.16,4,Rain,249
2012-11-6,51,44,38,45,39,36,93,80,47,30.12,30.05,29.89,19,7,1,18,7,,0.04,3,Rain,257
2012-11-7,51,48,45,48,46,43,100,86,68,30.29,30.22,30.12,9,4,1,15,10,,0.01,7,Rain,247
2012-11-8,52,50,48,46,45,43,93,82,70,30.22,30.10,30.04,12,7,4,13,9,,0.00,6,Rain,232
2012-11-9,54,50,46,47,44,39,93,82,55,30.08,29.93,29.71,19,6,4,11,7,,0.08,6,Rain,184
2012-11-10,54,50,46,50,48,45,100,91,82,29.71,29.53,29.44,11,6,3,13,7,24,0.04,6,Rain,177
2012-11-11,51,46,42,45,42,41,93,86,67,30.12,29.87,29.59,9,5,2,13,8,,0.00,5,Rain,222
2012-11-12,46,44,41,41,40,39,100,86,76,30.33,30.24,30.12,12,4,1,13,8,,0.00,6,,203
2012-11-13,50,47,44,47,45,41,100,90,77,30.44,30.39,30.33,11,5,1,12,8,,0.00,7,Rain,187
2012-11-14,52,44,37,46,41,36,100,84,51,30.44,30.35,30.27,16,4,2,9,3,,0.00,8,Fog,85
2012-11-15,43,36,30,41,36,30,100,87,69,30.28,30.22,30.15,4,3,0,7,3,,0.00,7,Fog,122
2012-11-16,43,38,33,37,35,32,100,84,70,30.16,30.05,29.92,4,3,1,8,4,,0.00,8,,147
2012-11-17,48,39,30,46,39,30,93,91,85,29.92,29.83,29.80,5,3,1,10,5,,0.00,8,Rain,176
2012-11-18,48,40,33,47,43,33,100,93,79,30.06,29.94,29.83,12,3,0,9,4,,0.08,6,Fog-Rain-Snow,352
2012-11-19,51,42,32,49,41,35,100,95,87,30.06,29.99,29.95,4,1,0,9,4,,0.00,6,Fog-Rain-Snow,145
2012-11-20,55,48,41,48,45,39,100,85,61,30.02,29.99,29.98,19,4,2,14,8,,0.00,6,,162
2012-11-21,51,42,34,45,39,35,100,84,61,30.06,29.90,29.83,16,5,2,22,9,36,0.02,5,Rain,167
2012-11-22,53,48,42,43,41,39,93,80,55,30.17,30.10,30.01,19,10,6,15,10,,0.00,3,,191
2012-11-23,48,45,42,45,42,39,100,86,70,30.04,29.97,29.89,19,6,1,15,9,,0.08,6,Fog-Rain,184
2012-11-24,50,45,40,47,44,41,100,96,87,30.07,29.97,29.68,5,1,0,13,4,,0.04,6,Fog-Rain,95
2012-11-25,55,50,46,49,42,37,88,70,51,29.87,29.75,29.59,19,7,4,25,17,43,0.03,6,Rain,209
2012-11-26,54,48,41,45,41,37,93,76,56,29.83,29.63,29.53,16,8,6,16,9,,0.01,2,Rain,179
2012-11-27,48,44,39,43,41,37,100,81,60,29.71,29.62,29.53,19,7,4,12,8,,0.00,5,Rain,181
2012-11-28,48,42,36,43,40,36,100,86,64,29.77,29.73,29.71,19,6,1,10,4,,0.02,5,Fog-Rain,352
2012-11-29,45,42,39,41,36,30,93,80,52,29.78,29.74,29.71,19,8,6,12,7,,0.00,4,Rain,343
2012-11-30,45,38,32,37,35,30,100,88,61,29.92,29.83,29.77,19,4,0,10,5,,0.00,6,Fog,240